Regional Weather Roundup
Issued by NWS Upton, NY

Current Version | Previous Version | Graphics & Text | Print | Product List | Glossary Off
Versions: 1 2 3 4 5 6 7 8 9 10 11 12 13 14 15 16 17 18 19 20 21 22 23 24 25 26 27 28 29 30 31 32 33 34 35 36 37 38 39 40 41 42 43 44 45 46 47 48 49

826
ASUS41 KOKX 011304
RWROKX

REGIONAL WEATHER ROUNDUP
NATIONAL WEATHER SERVICE NEW YORK NY
900 AM EDT SUN MAY 01 2016

NOTE: "FAIR" INDICATES FEW OR NO CLOUDS BELOW 12,000 FEET WITH NO
SIGNIFICANT WEATHER AND/OR OBSTRUCTIONS TO VISIBILITY.

NYZ071-072-176-178-NJZ106-104-011400-
NEW YORK CITY METRO AREA


CITY           SKY/WX    TMP DP  RH WIND       PRES   REMARKS
CENTRAL PARK   LGT RAIN  48  41  76 CALM      30.26R
LAGUARDIA APRT LGT RAIN  50  42  74 SE6       30.24R
KENNEDY INTL   LGT RAIN  49  45  86 SE3       30.25R
NEWARK/LIBERTY LGT RAIN  49  42  77 SE7       30.23R
BRNX BOT. GARD   N/A     46  39  76 E1        30.25R
TETERBORO      LGT RAIN  48  37  65 S5        30.22R
$$

NYZ177-179-078>081-011400-
LONG ISLAND NEW YORK

CITY           SKY/WX    TMP DP  RH WIND       PRES   REMARKS
FARMINGDALE    LGT RAIN  48  43  82 SE7       30.24R
ISLIP          LGT RAIN  48  42  80 SE9       30.23S
SHIRLEY        LGT RAIN  48  41  76 SE7       30.25R
RIVERHEAD        N/A     48  43  81 CALM      30.24S
WESTHAMPTON    CLOUDY    47  40  76 SE7       30.26R
EAST HAMPTON   CLOUDY    47  39  73 E9        30.24S
MONTAUK POINT    N/A     49  39  68 E6        30.27R
$$

NYZ052-065-067-011400-
HUDSON VALLEY

CITY           SKY/WX    TMP DP  RH WIND       PRES   REMARKS
WHITE PLAINS   LGT RAIN  46  41  82 SE3       30.22R
NEWBURGH       LGT RAIN  46  43  87 SE12      30.19F
MONTGOMERY     LGT RAIN  46  42  86 CALM      30.21R FOG
POUGHKEEPSIE   LGT RAIN  48  42  80 SE6       30.20F
ALBANY         LGT RAIN  50  37  61 S6        30.18F
$$

NJZ001-105-106-008-010-013-015-019>022-104-011400-
NEW JERSEY

CITY           SKY/WX    TMP DP  RH WIND       PRES   REMARKS
NEWARK/LIBERTY LGT RAIN  49  42  77 SE7       30.23R
TETERBORO      LGT RAIN  48  37  65 S5        30.22R
CALDWELL       LGT RAIN  47  38  71 SE5       30.22S
MORRISTOWN     LGT RAIN  46  45  93 SE3       30.22R
SOMERVILLE     LGT RAIN  46  42  86 SE3       30.19F FOG
SUSSEX         LGT RAIN  46  42  86 CALM      30.20S
ANDOVER          N/A     44  38  79 VRB3      30.19F
TRENTON        LGT RAIN  46  41  82 SE6       30.19F
MILLVILLE      LGT RAIN  49  46  90 E7        30.18F
ATLANTIC CITY  LGT RAIN  49  48  97 E8        30.19F FOG
WRIGHTSTOWN    LGT RAIN  47  46  96 E5        30.18S FOG
TOMS RIVER     CLOUDY    48  45  87 CALM      30.22R
BELMAR         LGT RAIN  48  46  93 E5        30.23R
$$

PAZ047>061-062-071-011400-
EASTERN PENNSYLVANIA

CITY           SKY/WX    TMP DP  RH WIND       PRES   REMARKS
PHILADELPHIA   LGT RAIN  47  42  83 E9        30.20S
ALLENTOWN      LGT RAIN  44  39  82 SE6       30.17F
SCRANTON       LGT RAIN  42  35  76 VRB5      30.11S
$$

CTZ002-004>006-009-010-012-RIZ004-006-007-MAZ004-011-015-011400-
SOUTHERN NEW ENGLAND
 IN CT

CITY           SKY/WX    TMP DP  RH WIND       PRES   REMARKS
BRADLEY INTL   LGT RAIN  48  36  63 S3        30.23R
HARTFORD       CLOUDY    50  35  56 SE3       30.24R
DANBURY        LGT RAIN  46  40  79 SE5       30.23R
WTRBRY/OXFORD  CLOUDY    46  37  71 SE8       30.24R
BRIDGEPORT     LGT RAIN  49  42  77 SE6       30.25R
MERIDEN        CLOUDY    50  33  52 SE3       30.24R
NEW HAVEN      CLOUDY    48  39  71 SE8       30.25R
CHESTER        FAIR      48  37  66 SE6       30.24S
GROTON         CLOUDY    49  42  77 SE8       30.26R
WILLIMANTIC    CLOUDY    49  35  58 S5        30.26R

 IN RI

CITY           SKY/WX    TMP DP  RH WIND       PRES   REMARKS
PROVIDENCE     CLOUDY    49  38  65 S7        30.27R
BLOCK ISLAND   CLOUDY    48  38  68 E9        30.26S
WESTERLY       CLOUDY    49  33  54 E7        30.27R

 IN MA

CITY           SKY/WX    TMP DP  RH WIND       PRES   REMARKS
BOSTON         CLOUDY    48  34  58 S6        30.26S
WORCESTER      CLOUDY    50  18  28 S7        30.23R
WESTFIELD      LGT RAIN  47  36  65 CALM      30.23R
PROVINCETOWN   CLOUDY    49  38  65 SE9       30.29R
NANTUCKET      CLOUDY    49  33  54 E8        30.27S
$$

ANZ330-335-338-340-345-350-353-355-011400-
COASTAL MARINE OBSERVATIONS


STATION/POSITION TIME  SKY/WX   TEMP    WIND        PRES    VSBY  WAVE
                                AIR SEA DIR/SP/G                  HT/PER
                 (UTC)          (F)     (DEG/KT/KT) (MB)    (MI)  (FT/S)
NY HARB ENTRANCE 1150            49 51  120/  8/ 10 1023.1          3/ 9
20S FIRE ISLAND  1150            47 49   90/ 10/ 12 1023.4          4/ 8
GREAT SOUTH BAY  1230            48 57  130/ 10/ 12   N/A
23 SSW MONTAUK P 1250            46 47  110/ 12/ 14 1023.7          4/ 8
15 E BARNEGAT LI 1222               51                N/A           4/ 8
HUDSON CANYON    1150            49 48              1023.0          5/ 8
KINGS POINT      1200            49 54              1023.0
EXECUTION ROCKS  NOT AVBL
CENTRAL LI SOUND 1200            47     120/ 10/ 12   N/A           0
EASTERN LI SOUND 1200            47 48  110/ 10/ 12   N/A
ROBBINS REEF     1200            49     140/  9/ 11 1022.5
$$


>>>>>>>>>>>>>>>>>>>>>>>>>>>> KEY <<<<<<<<<<<<<<<<<<<<<<<<<<<
>                                                          <
>     SKY/WX - SKY CONDITION/PRESENT WEATHER               <
>     TMP    - TEMPERATURE IN FAHRENHEIT                   <
>     DP     - DEWPOINT IN FAHRENHEIT                      <
>     RH     - RELATIVE HUMIDITY IN PERCENT                <
>     WIND   - DIRECTION AND SPEED IN MPH                  <
>     PRES   - MEAN SEA LEVEL PRESSURE IN INCHES OF HG     <
>     WCI    - WIND CHILL INDEX                            <
>     VSB    - VISIBILITY IN MILES                         <
>     HX     - HEAT INDEX                                  <
>     TC     - TEMPERATURE IN CELSIUS                      <
>     VRB    - VARIABLE WIND DIRECTION                     <
>                                                          <
>>>>>>>>>>>>>>>>>>>>>>>>>>>> KEY <<<<<<<<<<<<<<<<<<<<<<<<<<<






USA.gov is the U.S. government's official web portal to all federal, state and local government web resources and services.